Temperature
18 18 18 18 18 18 18 18 18 18 18 17 17 17 17 16 16 16 15 15 15 15 14 14 14 14 13 13 13 13 13 13 13 13 14 14 14 14 14 14 15 15 15
18 18 18 18 18 18 18 18 18 18 18 17 17 17 17 16 16 16 15 15 15 14 14 14 13 13 13 13 13 13 13 13 13 13 13 13 13 13 14 14 14 14 15
18 18 18 18 18 18 18 18 18 18 18 17 17 17 17 16 16 16 15 15 14 14 14 13 13 13 13 13 12 12 12 12 12 12 13 13 13 13 13 13 14 14 14
18 18 19 18 18 18 18 18 18 18 18 17 17 17 17 17 16 16 15 15 14 14 14 13 13 13 12 12 12 12 12 12 12 12 12 12 12 12 13 13 13 13 13
19 19 19 19 19 19 18 18 18 18 18 17 17 17 17 16 16 15 15 14 14 14 13 13 13 13 12 12 12 12 12 12 12 11 11 12 12 12 12 12 13 13 13
19 19 19 19 19 19 18 18 18 18 18 17 17 17 16 16 16 15 15 14 14 14 13 13 13 12 12 12 12 11 11 11 11 11 11 11 11 11 11 11 12 13 13
19 19 19 19 19 19 19 19 19 18 18 18 17 17 16 16 16 15 15 14 14 14 13 13 13 12 12 12 12 11 11 11 11 11 11 11 11 11 11 11 11 11 12
20 20 20 20 19 19 19 19 19 19 18 18 17 17 16 16 16 15 15 14 14 14 13 13 13 12 12 12 12 11 11 11 11 11 11 11 11 10 10 10 10 10 11
21 20 20 20 20 20 20 20 19 19 18 18 18 17 17 16 16 15 15 14 14 14 13 13 13 12 12 12 12 12 11 11 11 11 11 11 10 10 10 10 10 10 10
21 21 21 21 21 21 20 20 20 19 19 18 18 17 17 16 16 15 15 14 14 14 13 13 13 12 12 12 12 12 11 11 11 11 11 11 10 10 10 10 10 10 10
22 22 22 21 21 21 21 20 20 19 19 18 18 17 17 16 16 15 15 15 14 14 14 13 13 13 12 12 12 12 11 11 11 11 11 11 11 10 10 10 10 10 10
22 22 22 22 21 21 21 21 20 20 19 19 18 18 17 17 16 16 15 15 15 14 14 13 13 13 13 13 12 12 12 12 11 11 11 11 11 10 10 10 10 10 10
23 23 22 22 22 22 21 21 20 20 20 19 18 18 17 17 16 16 15 15 15 14 14 14 14 13 13 13 12 12 12 12 12 11 11 11 11 11 10 10 10 10 10
23 23 23 23 22 22 22 21 21 20 20 19 19 18 18 17 17 16 16 15 15 15 15 14 14 14 13 13 13 12 12 12 12 11 11 11 11 11 10 10 10 10 10
23 23 23 23 22 22 22 22 21 21 20 19 19 18 18 17 17 16 16 16 16 15 15 14 14 14 13 13 13 13 12 12 12 12 11 11 11 11 10 10 10 10 10
22 23 23 23 23 22 22 22 21 21 20 20 19 19 18 17 17 17 16 16 16 15 15 15 14 14 14 13 13 13 12 12 12 12 12 11 11 11 10 10 10 10 9
22 23 23 23 23 23 22 22 21 21 20 20 19 19 18 17 17 17 16 16 16 16 15 15 15 14 14 14 13 13 12 12 12 12 12 12 11 11 10 10 10 10 9
22 22 23 23 23 22 22 21 21 20 20 20 19 19 18 18 17 17 16 16 16 16 15 15 15 14 14 14 13 13 12 12 12 12 12 11 11 11 10 10 10 10 10
21 22 22 22 22 22 21 21 20 20 20 19 19 19 18 18 17 17 17 16 16 16 15 15 15 14 14 14 13 13 12 12 12 12 12 12 11 11 11 10 10 10 10
21 21 21 21 21 21 20 20 20 19 19 19 19 18 18 17 17 17 16 16 16 15 15 15 14 14 14 14 13 13 12 12 12 12 12 12 12 11 11 10 10 10 10
20 20 21 21 20 20 20 19 19 19 19 18 18 17 17 17 16 16 16 15 15 15 14 14 14 14 14 14 13 13 12 12 12 12 12 12 12 11 11 10 10 10 10
19 19 20 20 19 19 19 18 18 18 18 17 17 17 16 16 16 15 15 15 14 14 14 14 14 14 14 13 13 13 12 12 12 12 12 12 11 11 11 11 10 10 9
18 18 18 18 18 18 18 18 17 17 17 16 16 16 15 15 15 15 14 14 14 13 13 13 13 13 13 13 13 13 12 12 12 12 12 12 11 11 11 10 10 10 9
16 17 17 17 17 17 16 16 16 16 16 16 15 15 15 14 14 14 14 13 13 13 13 12 12 13 13 13 12 12 12 12 12 12 12 11 11 11 11 10 10 10 10
15 15 15 15 15 15 15 15 15 15 15 14 14 14 14 13 13 13 13 12 12 12 12 11 11 11 12 12 12 12 12 12 12 11 11 11 11 11 11 11 10 10 10
14 14 14 14 14 14 14 14 13 13 13 13 13 13 13 12 12 12 12 12 11 11 11 11 11 11 11 11 11 11 11 11 11 11 11 11 11 11 11 10 10 10 10
Wind_Speed
5 7 8 8 8 8 8 8 8 7 7 5 5 4 3 2 2 3 5 6 7 7 7 5 4 4 3 2 2 2 3 4 3 2 3 3 3 4 4 5 5 6 5
4 6 8 8 9 10 9 8 8 8 7 5 4 3 4 3 2 2 3 5 6 6 6 5 3 3 3 3 3 2 2 3 3 2 2 3 4 4 5 5 6 7 7
8 8 9 9 9 10 11 10 9 8 7 6 5 5 4 4 2 2 1 2 4 5 5 6 4 3 3 2 2 2 2 2 2 2 2 2 0 2 3 4 5 6 6
8 9 9 10 10 10 9 9 9 8 7 8 7 7 5 4 4 3 2 1 2 3 5 6 5 4 3 3 2 2 1 2 1 1 2 1 1 0 2 3 4 5 5
9 10 11 11 10 10 10 9 9 8 7 7 8 7 5 3 3 2 2 1 0 1 3 5 5 4 3 3 3 2 2 1 1 1 1 1 2 1 0 2 4 4 4
9 9 8 8 8 8 9 9 9 7 7 8 8 8 8 6 5 3 3 2 1 1 2 4 4 4 3 3 3 3 3 2 2 1 1 1 1 1 1 1 2 3 3
10 9 10 10 10 10 10 10 10 8 8 8 8 8 8 8 7 6 5 4 2 2 3 3 3 3 4 4 4 3 3 3 3 3 2 2 2 2 2 2 2 2 3
10 11 11 11 11 11 10 10 11 9 9 9 8 7 8 6 5 6 5 5 4 4 3 4 4 4 4 4 4 3 3 3 3 4 3 3 3 3 3 3 2 2 2
10 10 10 10 10 11 11 12 11 10 9 9 8 8 8 7 7 6 5 4 4 3 4 4 4 4 4 4 4 3 3 3 4 4 4 3 3 3 4 4 4 2 3
9 10 10 11 10 11 10 10 11 11 10 10 9 8 8 8 7 6 6 6 5 4 4 5 4 4 4 4 4 3 3 4 4 3 4 4 4 4 4 4 5 5 5
12 11 11 11 10 9 9 10 11 10 10 10 9 9 8 8 7 7 7 7 6 6 6 6 5 5 5 4 4 5 4 5 5 4 5 6 5 4 4 4 4 5 5
11 11 10 9 9 10 10 11 11 11 11 11 10 10 8 8 8 8 8 7 7 7 7 6 5 6 5 5 5 6 6 6 6 6 6 7 5 5 5 4 5 6 7
9 8 8 9 10 11 11 11 12 12 10 10 10 9 9 9 10 9 8 7 7 7 6 6 7 7 6 6 6 7 7 7 7 7 7 7 6 7 6 6 6 6 6
9 9 9 10 10 10 11 11 11 10 10 10 11 11 11 11 11 9 8 8 8 8 8 7 8 7 7 7 7 7 7 8 8 8 8 8 8 9 8 7 8 7 6
8 10 11 10 10 10 10 10 10 10 10 11 12 12 11 10 9 9 9 8 8 9 8 7 7 7 7 7 8 8 8 8 9 8 8 9 10 12 10 8 8 7 7
9 10 10 10 11 12 11 11 11 11 11 12 12 10 9 9 9 9 8 8 8 8 7 8 8 8 8 10 12 10 8 8 9 10 9 9 10 12 13 13 13 11 9
6 7 9 10 11 12 12 13 12 10 10 11 9 9 9 9 9 9 8 9 9 8 8 9 9 10 11 13 13 13 10 10 10 10 10 9 9 10 9 10 12 12 13
2 4 6 7 6 7 8 7 8 9 10 9 8 8 8 8 7 7 8 8 7 7 8 9 9 10 12 14 14 14 11 11 11 12 12 11 11 10 10 9 10 10 11
2 1 2 3 4 5 7 8 7 7 8 9 9 9 9 8 8 8 9 7 6 7 8 7 9 10 12 14 15 13 8 10 12 12 12 12 13 14 13 10 11 12 11
4 3 3 4 4 4 6 8 7 7 8 9 8 8 8 9 9 9 8 6 6 8 8 9 9 10 12 13 15 13 8 10 11 10 11 14 15 15 13 11 11 13 13
7 6 5 5 3 4 7 6 5 7 6 4 4 4 6 7 7 6 5 5 6 6 7 9 9 10 12 14 15 14 9 10 11 10 10 10 15 17 16 14 12 15 13
9 7 6 6 5 5 6 5 4 4 3 4 3 4 4 5 4 5 5 5 6 6 7 8 9 9 10 12 14 16 16 14 11 12 11 11 14 15 15 13 14 16 12
8 7 7 7 7 5 4 3 1 1 3 3 2 2 2 3 3 4 4 4 4 5 6 7 9 9 8 9 15 17 17 17 13 12 15 15 14 13 12 14 15 12 9
8 7 8 9 8 6 5 3 3 3 3 2 0 0 1 2 3 3 3 4 5 6 7 7 8 9 8 8 8 9 10 12 13 13 13 14 14 12 12 10 10 9 9
6 7 8 8 7 6 6 6 4 4 3 2 1 1 1 2 3 3 4 5 6 6 7 8 8 9 10 12 13 10 9 9 9 7 6 7 7 8 9 9 9 8 8
6 7 7 7 6 6 7 6 4 4 4 3 2 2 2 2 2 3 5 7 9 12 13 14 13 11 14 17 18 17 17 16 12 8 8 10 10 11 11 10 9 9 9
Wind_Direction
167 167 168 170 162 157 156 158 153 148 140 133 130 128 132 129 124 148 152 150 145 138 130 121 110 97 92 82 75 78 56 30 2 19 360 352 5 23 30 23 26 17 1
169 168 163 163 167 166 167 163 161 158 158 148 138 132 129 130 126 120 142 160 158 153 150 142 132 119 107 84 71 76 81 34 26 56 55 8 356 359 12 19 31 24 24
185 182 173 172 169 172 175 173 169 163 159 140 117 100 86 76 86 110 143 175 176 175 170 163 151 142 131 124 109 98 106 81 28 41 103 105 333 320 336 2 15 13 23
190 185 180 178 180 182 176 170 167 163 158 150 148 148 153 164 183 172 172 168 175 184 184 179 170 160 151 152 157 129 112 118 71 28 39 81 154 100 333 333 351 359 14
193 191 189 187 186 178 173 170 163 162 160 161 161 152 149 156 142 130 145 155 150 209 197 186 176 170 169 174 163 142 136 135 146 135 88 70 56 70 134 316 332 340 339
194 194 189 180 178 171 169 166 164 169 167 166 164 163 162 159 153 160 172 186 209 249 204 180 179 181 183 186 183 172 169 175 171 172 170 164 159 174 167 250 302 314 311
190 188 184 183 180 177 176 173 172 178 176 171 172 174 172 170 175 180 186 185 191 210 211 183 184 191 201 200 186 182 191 191 192 198 206 207 212 191 180 203 260 289 302
190 191 190 188 186 184 182 179 182 186 180 178 180 177 174 173 182 184 183 189 198 209 206 194 200 206 206 203 191 197 206 202 210 218 212 217 225 207 199 198 204 284 301
195 195 191 190 188 188 188 189 188 189 186 184 178 179 180 181 187 187 185 192 202 209 202 200 204 211 210 207 195 213 221 213 223 231 229 230 235 220 219 214 204 213 273
201 201 198 197 197 196 191 187 190 193 188 183 185 189 189 191 189 182 193 201 206 204 197 205 211 217 218 213 205 222 228 225 236 232 234 240 242 233 224 219 217 215 226
205 206 205 202 198 192 186 188 192 189 186 188 188 185 189 190 188 193 203 204 204 203 205 210 214 222 227 220 213 228 232 236 247 245 239 248 245 244 239 225 222 221 217
205 205 202 194 192 194 193 193 193 194 194 188 185 190 189 186 193 203 208 203 207 209 209 211 218 227 231 225 224 238 238 236 247 251 246 253 251 246 245 236 235 234 224
200 198 193 195 198 197 196 195 196 199 192 182 184 188 191 193 202 208 206 203 209 212 212 212 222 230 233 232 233 236 244 244 246 248 246 252 248 252 249 243 245 246 243
200 198 197 199 200 198 196 195 198 192 184 183 187 194 200 202 206 207 204 205 208 213 217 218 225 232 236 238 241 240 244 248 250 249 247 249 245 248 251 251 249 248 250
201 204 206 202 197 197 197 193 195 189 185 185 193 203 203 201 202 204 207 208 209 217 219 222 232 235 237 241 240 240 243 247 254 255 251 249 249 248 246 248 249 245 248
211 210 208 200 198 199 197 192 192 188 181 188 200 202 196 199 204 208 208 208 214 218 219 226 232 238 241 242 240 237 242 245 249 257 258 256 257 258 256 252 249 239 241
211 209 208 205 203 200 192 192 190 174 176 188 195 192 193 201 208 208 206 213 218 219 225 232 233 240 246 247 249 246 241 245 248 250 255 259 256 249 254 258 261 256 246
219 209 206 206 199 183 178 175 160 166 178 187 193 191 191 202 203 201 211 218 217 220 229 236 236 242 250 248 249 250 247 248 250 248 247 251 256 252 246 255 261 263 260
309 271 195 182 161 164 160 150 156 168 180 194 200 198 195 200 201 208 217 216 214 224 228 235 236 241 252 250 248 246 246 249 252 251 246 243 250 250 240 244 254 264 267
15 32 74 91 110 136 139 148 164 171 196 207 208 201 196 201 209 216 218 213 215 229 233 240 240 240 250 253 249 243 241 249 255 256 249 239 239 246 238 235 242 255 262
26 43 67 79 94 121 135 155 166 196 210 197 183 185 196 207 215 217 217 218 223 233 238 247 251 247 249 255 252 243 232 241 251 254 254 247 234 237 238 232 236 243 250
32 45 66 62 63 93 119 139 184 211 158 145 166 193 202 212 215 213 223 223 224 236 247 254 265 262 255 252 254 247 237 234 242 250 252 249 239 234 236 235 236 241 245
32 38 56 57 52 65 100 128 239 125 121 135 180 214 219 221 217 215 227 232 230 241 255 257 266 272 268 259 252 252 249 240 237 247 246 246 245 240 242 241 239 239 239
35 39 55 60 48 39 48 46 35 73 101 118 184 219 231 252 246 238 235 239 244 249 257 261 266 271 274 273 267 259 259 252 244 248 250 248 248 243 243 247 244 236 232
38 49 61 63 54 46 44 37 44 73 78 61 23 352 305 280 277 269 253 249 247 244 254 264 266 273 277 272 262 262 264 257 250 243 243 243 242 243 244 244 243 237 231
53 56 57 59 50 46 41 28 33 65 76 50 14 352 325 309 300 297 298 269 262 271 264 259 261 267 262 271 276 272 264 259 251 235 242 243 243 244 246 246 244 238 233
Height
1512 1515 1518 1521 1525 1528 1531 1534 1537 1540 1542 1544 1547 1549 1551 1553 1554 1555 1555 1556 1556 1556 1556 1555 1555 1554 1553 1553 1552 1552 1552 1552 1551 1551 1551 1551 1551 1552 1552 1552 1552 1553 1553
1510 1513 1517 1520 1524 1527 1530 1533 1536 1539 1541 1544 1546 1548 1550 1552 1553 1554 1555 1555 1556 1555 1555 1555 1554 1553 1553 1552 1552 1551 1551 1551 1550 1551 1550 1551 1552 1551 1551 1551 1551 1551 1552
1508 1512 1515 1518 1522 1525 1528 1531 1535 1538 1541 1543 1546 1548 1549 1551 1552 1553 1554 1554 1555 1555 1554 1554 1554 1553 1553 1552 1551 1551 1551 1550 1550 1550 1550 1550 1550 1551 1551 1551 1551 1551 1551
1506 1510 1513 1516 1519 1523 1527 1530 1534 1537 1540 1542 1545 1547 1548 1549 1550 1551 1552 1553 1553 1553 1553 1553 1553 1553 1552 1552 1551 1550 1550 1550 1549 1549 1549 1550 1550 1550 1550 1551 1550 1551 1551
1504 1507 1511 1514 1518 1522 1525 1529 1533 1536 1539 1541 1544 1546 1547 1548 1549 1550 1551 1551 1552 1552 1552 1552 1552 1552 1551 1551 1550 1550 1550 1549 1549 1549 1549 1549 1549 1549 1549 1549 1549 1550 1550
1502 1506 1509 1513 1517 1520 1524 1527 1531 1534 1537 1540 1542 1544 1546 1546 1547 1548 1549 1549 1550 1550 1550 1550 1550 1550 1550 1550 1550 1549 1549 1548 1548 1548 1548 1548 1548 1548 1548 1547 1547 1547 1547
1499 1503 1507 1510 1514 1518 1522 1526 1529 1532 1535 1538 1540 1542 1544 1545 1545 1546 1547 1547 1548 1548 1548 1549 1549 1549 1549 1549 1548 1548 1548 1547 1547 1547 1547 1547 1547 1546 1546 1546 1545 1544 1544
1497 1500 1504 1508 1512 1516 1520 1523 1527 1530 1533 1535 1538 1540 1542 1543 1543 1544 1545 1545 1546 1546 1546 1547 1547 1547 1547 1547 1547 1547 1546 1546 1546 1546 1546 1545 1545 1545 1544 1544 1544 1542 1542
1494 1497 1502 1505 1510 1514 1517 1520 1524 1528 1530 1533 1536 1538 1539 1540 1541 1542 1543 1543 1543 1544 1544 1544 1545 1545 1545 1545 1545 1545 1545 1544 1544 1544 1544 1544 1543 1543 1543 1542 1542 1542 1540
1492 1495 1499 1503 1507 1511 1515 1519 1522 1525 1528 1531 1533 1535 1537 1538 1539 1540 1540 1541 1541 1541 1542 1542 1542 1542 1543 1542 1542 1542 1542 1542 1542 1542 1542 1541 1541 1541 1540 1540 1539 1539 1538
1489 1493 1496 1500 1505 1509 1512 1515 1518 1521 1525 1528 1530 1532 1534 1535 1536 1537 1538 1538 1539 1539 1539 1540 1540 1540 1540 1540 1540 1540 1540 1539 1539 1539 1539 1538 1538 1538 1537 1537 1536 1535 1534
1486 1490 1494 1497 1501 1505 1508 1512 1515 1518 1521 1524 1527 1529 1531 1532 1533 1534 1535 1536 1536 1537 1537 1537 1537 1538 1538 1538 1537 1537 1537 1537 1536 1536 1536 1535 1535 1534 1534 1533 1532 1531 1530
1483 1487 1490 1493 1497 1501 1504 1508 1511 1514 1517 1520 1523 1525 1527 1528 1530 1531 1532 1533 1533 1534 1534 1534 1535 1535 1535 1535 1534 1534 1534 1533 1533 1532 1532 1531 1531 1530 1529 1528 1528 1527 1526
1479 1482 1485 1488 1492 1496 1500 1503 1506 1510 1513 1516 1519 1521 1523 1525 1526 1528 1529 1529 1530 1531 1531 1531 1531 1531 1531 1531 1531 1531 1530 1530 1529 1529 1528 1527 1526 1525 1525 1524 1523 1522 1521
1475 1477 1480 1483 1487 1491 1495 1498 1502 1505 1508 1511 1514 1516 1519 1521 1522 1524 1525 1526 1527 1527 1528 1528 1528 1528 1527 1527 1527 1527 1526 1526 1525 1524 1523 1522 1522 1520 1520 1518 1517 1517 1515
1470 1473 1476 1479 1482 1486 1489 1493 1497 1501 1504 1507 1510 1512 1515 1516 1518 1520 1521 1522 1523 1523 1524 1524 1524 1523 1523 1523 1523 1522 1522 1521 1520 1519 1518 1517 1516 1515 1514 1513 1512 1511 1510
1466 1469 1471 1474 1477 1481 1484 1488 1492 1496 1499 1502 1505 1508 1510 1512 1514 1516 1517 1518 1518 1519 1519 1519 1519 1519 1519 1518 1518 1517 1517 1516 1515 1514 1513 1512 1511 1510 1509 1508 1507 1506 1504
1464 1466 1468 1471 1474 1478 1481 1485 1489 1492 1495 1498 1501 1504 1506 1508 1510 1511 1512 1513 1514 1514 1514 1514 1514 1514 1513 1513 1513 1512 1511 1510 1509 1508 1507 1506 1505 1504 1503 1502 1500 1499 1498
1464 1465 1467 1470 1472 1475 1479 1482 1485 1489 1492 1495 1497 1500 1502 1504 1505 1506 1507 1508 1509 1509 1509 1509 1508 1508 1507 1508 1507 1506 1504 1503 1502 1501 1501 1500 1498 1498 1497 1495 1494 1492 1492
1465 1466 1467 1469 1471 1474 1477 1480 1483 1486 1488 1491 1494 1496 1498 1499 1500 1501 1502 1503 1503 1503 1503 1503 1502 1502 1501 1501 1501 1500 1498 1496 1495 1494 1493 1493 1492 1491 1490 1489 1487 1485 1485
1466 1467 1467 1468 1470 1473 1475 1477 1480 1483 1486 1488 1490 1492 1493 1495 1496 1497 1497 1497 1497 1497 1496 1496 1496 1495 1494 1494 1493 1492 1491 1489 1487 1486 1485 1485 1484 1484 1483 1482 1480 1479 1478
1467 1468 1468 1468 1469 1471 1473 1476 1478 1480 1483 1485 1487 1488 1489 1490 1491 1491 1492 1492 1492 1491 1490 1489 1488 1488 1487 1486 1485 1485 1483 1482 1480 1478 1477 1477 1477 1476 1475 1474 1473 1472 1471
1469 1469 1469 1469 1470 1471 1473 1475 1477 1478 1480 1482 1483 1484 1485 1486 1486 1486 1486 1486 1486 1485 1483 1482 1480 1479 1479 1478 1477 1476 1475 1473 1471 1470 1469 1469 1468 1468 1467 1466 1465 1464 1463
1472 1472 1471 1470 1471 1472 1474 1475 1475 1477 1478 1479 1480 1480 1481 1481 1481 1481 1481 1480 1479 1478 1477 1475 1473 1471 1470 1469 1468 1467 1466 1464 1463 1461 1460 1460 1459 1459 1458 1457 1457 1456 1455
1475 1474 1473 1473 1473 1474 1474 1475 1475 1476 1476 1477 1477 1477 1477 1477 1476 1476 1475 1474 1473 1472 1470 1468 1466 1464 1461 1461 1460 1458 1456 1455 1454 1452 1451 1450 1449 1449 1448 1448 1448 1447 1446
1477 1476 1476 1475 1475 1475 1475 1475 1475 1475 1475 1474 1474 1473 1473 1472 1471 1470 1469 1468 1467 1465 1463 1461 1459 1456 1454 1452 1450 1449 1447 1445 1444 1442 1440 1440 1440 1439 1439 1438 1438 1438 1437